sat.trackr.live / text

‹ back to catalog

STARLINK-30421

NORAD 58107 · 2023-161L

PAYLOAD ACTIVE UNKNOWN

§ Identity

Operator
Country
US
Launch date
2023-10-21
Launch site
AFWTR
Launch vehicle
Mass (kg)
RCS (m²)

Purposes: comms

External: N2YO · Heavens-Above · Gunter

§ Orbital elements

Epoch: 2026-09-20T20:38:14.929728Z

Period
93.85 min
Inclination
53.1601°
Eccentricity
0.0001064
Mean motion
15.34388209 rev/d
Perigee alt
462.0 km
Apogee alt
463.5 km
Semi-major
6,840.9 km
B*
4.9958e-5
RAAN
321.7198°
Arg perigee
72.5965°
Mean anomaly
287.5154°
Rev number
16,454

§ Raw data

STARLINK-304211 58107U 23161L   26263.85989502  .00001312  00000+0  49958-4 0  99942 58107  53.1601 321.7198 0001064  72.5965 287.5154 15.34388209164540

JSON: /api/v1/satellites/58107 · /tle

For live sub-satellite position, see the globe view (requires WebGL).

§ Visibility from observer

Set your observer location to see the next 7 days of passes ≥ 10°. The values pass through the URL so the page stays shareable.

No JS? Fill the form by hand. The geolocation button needs JavaScript.